Hourly Data Report for March 13, 2003

SHERBROOKE A
QUEBEC

45°26'00.000" N
71°41'00.000" W
241.40 m
7028124
71610
YSC

Download Data

Hourly Data (March 2003)
Hourly Data Report for March 13, 2003
TIME
LST
Temp Definition
°C
Dew Point Definition
°C
Rel Hum Definition
%
Precip. Amount Definition
mm

Wind Dir Definition
10's deg

Wind Spd Definition
km/h
Visibility Definition
km
Stn Press Definition
kPa
Hmdx Definition


Wind Chill Definition


Weather Definition


00:00 -9.8 -16.7 57   31 15 15.0 98.94   -16  
01:00 -11.6 -17.6 61   34 9 15.0 99.05   -17  
02:00 -13.7 -19.3 63   36 6 15.0 99.15   -18  
03:00 -15.4 -22.1 56   33 7 15.0 99.21   -20  
04:00 -16.7 -23.7 55   31 7 15.0 99.29   -22  
05:00 -17.4 -26.6 45   29 4 15.0 99.37   -21  
06:00 -18.3 -26.1 50   26 6 15.0 99.46   -23  
07:00 -19.8 -26.2 57   25 6 15.0 99.53   -25  
08:00 -17.8 -26.5 47   26 7 24.1 99.56   -23 Mainly Clear
09:00 -16.2 -25.3 45   27 9 24.1 99.55   -22 Mostly Cloudy
10:00 -14.5 -25.8 38   28 4 24.1 99.44   -17 Mostly Cloudy
11:00 -13.4 -24.4 39   28 9 24.1 99.32   -19 Mostly Cloudy
12:00 -12.2 -23.9 37   31 7 24.1 99.23   -17 Mostly Cloudy
13:00 -11.9 -25.3 32   28 13 24.1 99.17   -19 Mostly Cloudy
14:00 -11.0 -23.4 35   29 7 24.1 99.12   -15 Mostly Cloudy
15:00 -10.5 -23.1 35   27 13 24.1 99.05   -17 Mainly Clear
16:00 -10.3 -24.2 31   30 15 24.1 99.02   -17 Mainly Clear
17:00 -11.3 -24.7 32   29 13 24.1 99.05   -18 Clear
18:00 -13.2 -26.2 33   30 13 15.0 99.12   -20  
19:00 -17.3 -26.9 43     0 15.0 99.16      
20:00 -17.5 -26.0 47   30 6 15.0 99.21   -22  
21:00 -17.7 -26.9 44   28 9 15.0 99.29   -24  
22:00 -18.8 -28.1 44   28 9 15.0 99.32   -25  
23:00 -19.8 -27.6 50   27 9 15.0 99.31   -27  

Notes on Data Quality.

Legend

  • E = Estimated
  • M = Missing
  • NA = Not Available*
  • [empty] = Indicates an unobserved value
Date modified: